Location: Briis
(48.6240°N, 2.1211°E)
Time: 11:20:34
(UTC+00:00)

Cosmos 1570 Rocket - Pass Details

Date: 25 September 2020
Orbit: 763 x 788 km, 74.1° (Epoch: 25 October)

Event Time Altitude Azimuth Distance (km) Brightness Sun altitude
Exits shadow 03:58:29 14° 198° (SSW) 2,040 5.9 -17.7°
Maximum altitude 04:03:02 84° 112° (ESE) 796 4.1 -17.0°
Drops below altitude 10° 04:08:25 10° 24° (NNE) 2,360 7.1 -16.2°
Sets 04:10:49 0° 24° (NNE) 3,294 7.9 -15.8°
